Humidity-temperature Sensor

Selected Measurement Type: Relative Humidity

 
Relative Humidity [%]     6 entries per hour
Showing data from 3/11/2023 (00:00:00 Z) to 3/8/2023 (00:01:00 Z)
Previous Next [ Day | 3-Days | 7-Days ]
First Last
Prev [ Day | 3-Days | 7-Days ] Next
First Last

Start Time:     :
End Time:     :     
Time (in GMT) :00 :50 :40 :30 :20 :10
Previous Next [ Day | 3-Days | 7-Days ]
First Last
Prev [ Day | 3-Days | 7-Days ] Next
First Last


123 => good data
MM => data is determined as missing
-- => data not received/configured
Back to Top Back to Top
3/11/2023 00:00 to 23:10 85.33 85.31 85.39 86.03 86.05 86.09
3/10/2023 23:00 to 22:10 85.37 85.64 85.60 85.21 85.39 85.72
3/10/2023 22:00 to 21:10 85.62 85.33 85.29 85.21 85.19 85.33
3/10/2023 21:00 to 20:10 85.23 85.07 84.98 84.24 84.18 84.43
3/10/2023 20:00 to 19:10 84.26 84.49 84.47 84.61 85.00 85.62
3/10/2023 19:00 to 18:10 85.29 84.98 84.90 85.37 86.05 85.87
3/10/2023 18:00 to 17:10 85.79 85.46 85.39 85.39 85.00 84.98
3/10/2023 17:00 to 16:10 85.17 86.20 86.92 86.01 86.05 85.93
3/10/2023 16:00 to 15:10 86.01 85.23 85.91 86.22 86.34 86.13
3/10/2023 15:00 to 14:10 85.72 85.58 85.31 85.39 85.54 85.56
3/10/2023 14:00 to 13:10 85.79 86.07 86.44 86.59 86.34 86.28
3/10/2023 13:00 to 12:10 86.32 86.20 86.24 85.85 86.24 86.59
3/10/2023 12:00 to 11:10 86.73 86.38 85.81 85.70 86.03 85.81
3/10/2023 11:00 to 10:10 85.95 85.66 85.25 84.96 85.29 85.66
3/10/2023 10:00 to 9:10 85.81 85.91 86.32 86.67 86.30 85.72
3/10/2023 09:00 to 8:10 85.42 85.03 84.68 84.57 85.00 85.42
3/10/2023 08:00 to 7:10 85.48 84.90 84.26 83.85 83.96 83.77
3/10/2023 07:00 to 6:10 84.12 83.81 83.81 84.04 84.41 84.39
3/10/2023 06:00 to 5:10 84.33 84.41 84.61 85.07 84.88 84.68
3/10/2023 05:00 to 4:10 84.43 84.31 83.83 83.55 84.16 83.98
3/10/2023 04:00 to 3:10 84.18 83.77 84.29 84.84 85.11 84.20
3/10/2023 03:00 to 2:10 83.30 82.81 82.54 83.11 83.61 83.71
3/10/2023 02:00 to 1:10 83.98 84.45 84.08 84.12 83.65 84.41
3/10/2023 01:00 to 0:10 84.26 83.71 82.72 82.42 82.76 82.68
3/10/2023 00:00 to 23:10 82.68 82.83 83.38 83.24 83.28 82.81
3/9/2023 23:00 to 22:10 83.11 83.24 83.46 83.69 83.46 83.75
3/9/2023 22:00 to 21:10 83.75 83.85 84.10 84.47 84.31 84.45
3/9/2023 21:00 to 20:10 85.23 84.74 84.49 84.80 84.74 85.21
3/9/2023 20:00 to 19:10 85.31 84.88 84.70 84.96 85.03 84.49
3/9/2023 19:00 to 18:10 84.16 84.02 83.92 84.96 84.88 84.57
3/9/2023 18:00 to 17:10 84.61 84.68 84.39 84.68 84.61 84.37
3/9/2023 17:00 to 16:10 84.16 84.90 84.84 84.51 84.57 85.07
3/9/2023 16:00 to 15:10 85.42 85.39 85.07 84.84 85.23 85.64
3/9/2023 15:00 to 14:10 85.19 85.64 85.89 86.09 86.44 86.77
3/9/2023 14:00 to 13:10 86.55 85.44 84.80 84.02 83.55 84.39
3/9/2023 13:00 to 12:10 84.22 84.10 84.90 84.22 84.12 84.08
3/9/2023 12:00 to 11:10 84.96 84.80 84.76 84.20 83.87 84.88
3/9/2023 11:00 to 10:10 84.47 84.53 84.08 84.33 84.82 84.43
3/9/2023 10:00 to 9:10 85.05 84.47 84.16 84.57 84.37 84.59
3/9/2023 09:00 to 8:10 83.87 83.67 84.18 84.33 84.55 83.94
3/9/2023 08:00 to 7:10 84.00 85.21 85.85 86.50 86.85 86.40
3/9/2023 07:00 to 6:10 85.52 83.94 83.81 84.51 84.68 84.49
3/9/2023 06:00 to 5:10 84.12 84.12 83.22 83.69 84.08 84.35
3/9/2023 05:00 to 4:10 85.39 85.15 84.72 84.24 84.43 84.49
3/9/2023 04:00 to 3:10 83.92 83.09 83.13 83.30 82.85 82.64
3/9/2023 03:00 to 2:10 82.17 81.78 81.43 83.13 82.95 82.44
3/9/2023 02:00 to 1:10 82.87 83.61 84.66 85.29 85.66 85.70
3/9/2023 01:00 to 0:10 85.74 85.95 86.44 85.87 84.96 84.43
3/9/2023 00:00 to 23:10 85.05 85.58 85.87 86.18 86.24 85.35
3/8/2023 23:00 to 22:10 85.68 85.81 85.42 85.79 85.79 85.85
3/8/2023 22:00 to 21:10 86.42 86.38 86.38 85.81 85.15 84.45
3/8/2023 21:00 to 20:10 83.83 82.72 82.60 82.29 82.35 82.56
3/8/2023 20:00 to 19:10 82.52 82.83 82.52 82.66 82.33 81.74
3/8/2023 19:00 to 18:10 82.09 81.45 82.17 82.95 82.91 83.50
3/8/2023 18:00 to 17:10 83.87 84.29 84.70 85.21 84.92 84.86
3/8/2023 17:00 to 16:10 84.90 84.88 84.86 84.88 84.70 85.33
3/8/2023 16:00 to 15:10 86.16 86.77 87.78 87.96 87.90 87.18
3/8/2023 15:00 to 14:10 87.10 87.06 87.02 86.55 86.57 87.26
3/8/2023 14:00 to 13:10 87.82 87.92 87.74 87.37 87.45 86.79
3/8/2023 13:00 to 12:10 86.61 87.51 87.98 88.35 88.42 88.58
3/8/2023 12:00 to 11:10 88.95 89.53 90.10 89.90 89.87 89.85
3/8/2023 11:00 to 10:10 89.50 89.48 89.48 89.44 89.61 89.63
3/8/2023 10:00 to 9:10 89.48 89.30 88.77 88.70 88.58 88.68
3/8/2023 09:00 to 8:10 88.77 88.83 88.77 88.85 88.58 88.46
3/8/2023 08:00 to 7:10 88.42 88.03 88.09 88.19 88.07 88.05
3/8/2023 07:00 to 6:10 87.68 87.49 87.55 87.84 87.57 87.41
3/8/2023 06:00 to 5:10 87.33 87.18 86.90 86.63 86.77 86.44
3/8/2023 05:00 to 4:10 86.67 87.31 87.49 88.03 87.94 88.03
3/8/2023 04:00 to 3:10 88.15 88.23 88.15 87.66 87.49 86.77
3/8/2023 03:00 to 2:10 86.85 86.73 87.06 86.94 86.69 86.55
3/8/2023 02:00 to 1:10 86.26 86.18 86.87 87.55 87.74 88.09
3/8/2023 01:00 to 0:10 88.15 88.23 88.44 89.05 89.44 89.59